#timestamp,LO_Frequency,Hit 
1501668015.9,286046942.2,N
1501668035.7,286046942.4,N
1501668055.5,286046943.6,N
1501668075.4,286046943.4,N
1501668095.2,286046940.5,N
1501668115.0,286046940.5,N
1501668115.9,286046940.5,N
1501668135.8,286046940.7,N
1501668155.6,286046941.7,N
1501668175.4,286046940.9,N
1501668195.2,286046941.8,N
1501668215.1,286046941.4,N
1501668216.0,286046941.4,N
1501668235.8,286046941.6,N
1501668255.6,286046942.0,N
1501668275.5,286046942.0,N
1501668295.3,286046939.2,N
1501668315.1,286046939.4,N
1501668335.9,286046939.1,N
1501668355.7,286046941.9,N
1501668375.5,286046939.5,N
1501668395.4,286046939.1,N
1501668415.2,286046942.0,N
1501668435.0,286046939.9,N
1501668435.9,286046939.9,N
1501668455.7,286046937.6,N
1501668475.6,286046938.1,N
1501668495.4,286046935.7,N
1501668515.2,286046936.5,N
1501668535.1,286046935.7,N
1501668536.0,286046935.7,N
1501668555.8,286046937.2,N
1501668575.6,286046937.1,N
1501668595.5,286046934.2,N
1501668615.3,286046934.4,N
1501668635.1,286046934.8,N
1501668655.9,286046935.6,N
1501668675.7,286046935.2,N
1501668695.5,286046935.6,N
1501668715.4,286046933.3,N
1501668735.2,286046933.1,N
1501668755.0,286046933.4,N
1501668755.9,286046933.4,N
1501668775.7,286046933.2,N
1501668795.6,286046933.8,N
1501668815.4,286046931.4,N
1501668835.2,286046931.6,N
1501668855.1,286046931.5,N
1501668856.0,286046931.5,N
1501668875.8,286046931.5,N
1501668895.6,286046931.7,N
1501668915.5,286046932.4,N
1501668935.3,286046929.6,N
1501668955.1,286046929.9,N
1501668975.9,286046930.5,N
1501668995.7,286046930.7,N
1501669015.5,286046930.7,N
1501669035.3,286046928.0,N
1501669055.2,286046928.1,N
1501669075.0,286046927.8,N
1501669075.9,286046927.8,N
1501669095.7,286046927.9,N
1501669115.6,286046928.5,N
1501669135.4,286046929.1,N
1501669155.2,286046926.5,N
1501669175.1,286046926.1,N
1501669176.0,286046926.1,N
1501669195.8,286046926.7,N
1501669215.6,286046927.1,N
1501669235.5,286046927.5,N
1501669255.3,286046924.7,N
1501669275.1,286046925.1,N
1501669295.8,286046925.7,N
1501669315.7,286046925.3,N
1501669335.5,286046925.9,N
1501669355.3,286046925.9,N
1501669375.2,286046926.0,N
1501669395.9,286046923.6,N
1501669415.7,286046923.5,N
1501669435.6,286046923.9,N
1501669455.4,286046921.4,N
1501669475.2,286046921.9,N
1501669495.1,286046922.7,N
1501669496.0,286046922.7,N
1501669515.8,286046922.7,N
1501669535.6,286046922.3,N
1501669555.5,286046919.9,N
1501669575.3,286046919.7,N
1501669595.1,286046920.0,N
1501669615.8,286046920.4,N
1501669635.7,286046918.5,N
1501669655.5,286046918.4,N
1501669675.3,286046919.3,N
1501669695.2,286046916.6,N
1501669715.9,286046917.2,N
1501669735.7,286046917.1,N
1501669755.6,286046916.7,N
1501669775.4,286046917.5,N
1501669795.2,286046917.7,N
1501669815.1,286046917.6,N
1501669816.0,286046917.6,N
1501669835.8,286046917.9,N
1501669855.6,286046914.9,N
1501669875.4,286046915.4,N
1501669895.3,286046916.1,N
1501669915.1,286046915.8,N
1501669935.8,286046913.5,N
1501669955.2,286046911.7,N
1501669975.1,286046913.9,N
1501669976.0,286046913.9,N
1501669995.8,286046914.8,N
1501670015.6,286046914.2,N
1501670035.4,286046914.6,N
1501670055.3,286046914.0,N
1501670075.1,286046912.2,N
1501670095.8,286046912.9,N
1501670115.7,286046913.0,N
1501670135.5,286046910.2,N
1501670155.3,286046910.7,N
1501670175.2,286046908.5,N
1501670195.9,286046911.3,N
1501670215.7,286046911.6,N
1501670235.6,286046911.6,N
1501670255.4,286046909.2,N
1501670275.2,286046909.9,N
1501670295.0,286046907.0,N
1501670295.9,286046907.0,N
1501670315.8,286046909.5,N
1501670335.6,286046909.6,N
1501670355.4,286046909.5,N
1501670375.3,286046907.0,N
1501670395.1,286046907.4,N
1501670396.0,286046907.4,N
1501670415.8,286046908.0,N
1501670435.7,286046907.5,N
1501670455.5,286046908.1,N
1501670475.3,286046907.7,N
1501670495.2,286046907.9,N
1501670515.9,286046906.2,N
1501670535.7,286046904.4,N
1501670555.5,286046906.5,N
1501670575.4,286046904.0,N
1501670595.2,286046904.9,N
1501670615.0,286046904.8,N
1501670615.9,286046904.8,N
1501670635.8,286046904.7,N
1501670655.6,286046903.3,N
1501670675.4,286046902.7,N
1501670695.3,286046902.8,N
1501670715.1,286046903.0,N
1501670716.0,286046903.0,N
1501670735.8,286046903.4,N
1501670755.7,286046903.3,N
1501670775.5,286046903.2,N
1501670795.3,286046903.5,N
1501670815.2,286046900.5,N
1501670835.9,286046901.8,N
1501670855.7,286046900.8,N
1501670875.5,286046901.3,N
1501670895.4,286046901.6,N
1501670915.2,286046902.0,N
1501670935.0,286046899.2,N
1501670935.9,286046899.2,N
1501670955.8,286046898.9,N
1501670975.6,286046899.4,N
1501670995.4,286046899.8,N
1501671015.3,286046899.8,N
1501671035.1,286046900.4,N
1501671036.0,286046900.4,N
1501671055.8,286046897.8,N
1501671075.7,286046896.0,N
1501671095.5,286046898.8,N
1501671115.3,286046898.2,N
1501671135.2,286046898.4,N
1501671155.9,286046896.0,N
1501671175.7,286046895.9,N
1501671195.6,286046896.6,N
1501671215.4,286046897.0,N
1501671235.2,286046896.9,N
1501671255.0,286046896.5,N
1501671256.0,286046896.5,N
1501671275.8,286046896.8,N
1501671295.6,286046894.1,N
1501671315.4,286046894.4,N
1501671335.3,286046894.3,N
1501671355.1,286046894.4,N
1501671375.8,286046892.5,N
1501671395.7,286046892.6,N
1501671415.5,286046895.0,N
1501671435.3,286046895.2,N
1501671455.2,286046895.5,N
1501671475.9,286046893.3,N
1501671495.7,286046894.0,N
1501671515.6,286046891.3,N
1501671535.4,286046891.2,N
1501671555.2,286046891.8,N
1501671575.0,286046892.1,N
1501671575.9,286046892.1,N
1501671595.8,286046889.8,N
